Regional Weather Roundup
Issued by NWS Upton, NY

Home | Current Version | Previous Version | Text Only | Print | Product List | Glossary On
Versions: 1 2 3 4 5 6 7 8 9 10 11 12 13 14 15 16 17 18 19 20 21 22 23 24 25 26 27 28 29 30 31 32 33 34 35 36 37 38 39 40 41 42 43 44 45 46 47 48 49 50
000
ASUS41 KOKX 252309
RWROKX

REGIONAL WEATHER ROUNDUP
NATIONAL WEATHER SERVICE NEW YORK NY
700 PM EDT TUE APR 25 2017

NOTE: "FAIR" INDICATES FEW OR NO CLOUDS BELOW 12,000 FEET WITH NO
SIGNIFICANT WEATHER AND/OR OBSTRUCTIONS TO VISIBILITY.

NYZ071-072-176-178-NJZ106-104-260000-
NEW YORK CITY METRO AREA

CITY           SKY/WX    TMP DP  RH WIND       PRES   REMARKS
Central Park   RAIN      52  51  97 E17G31    29.94F FOG
Wall St Helipt LGT RAIN  53  51  93 NE24      29.90F FOG
Bronx Bot Gard   N/A     52  50  93 N10       29.93S
LaGuardia APRT LGT RAIN  53  50  89 NE29G35   29.91F FOG
Kennedy INTL   HVY RAIN  54  53  97 NE20      29.90F FOG
Breezy Point     N/A     52 N/A N/A NE16G25     N/A
Newark/Liberty RAIN      54  52  93 NE15G25   29.90F FOG
Teterboro      HVY RAIN  55  52  89 E17G28    29.90F FOG
$$

NYZ177-179-078>081-260000-
LONG ISLAND NEW YORK

CITY           SKY/WX    TMP DP  RH WIND       PRES   REMARKS
Jones Beach      N/A     54 N/A N/A NE25G32     N/A
Matinecock PT    N/A     50 N/A N/A E33         N/A
Farmingdale    RAIN      52  51  97 NE13G26   29.92F FOG
MacArthur/ISP  HVY RAIN  53  53 100 NE14G23   29.93F VSB 3/4
Shirley        HVY RAIN  53  53 100 NE8       29.95F VSB 1
Mt Sinai Harb    N/A    N/A N/A N/A E13G18      N/A
Westhampton    LGT RAIN  54  51  90 E12G24    29.97F FOG
East Hampton   DRIZZLE   51  50  96 E10G17    29.99F
Montauk          N/A     50  49  96 E12       30.02F
$$

NYZ052-065-067-260000-
HUDSON VALLEY

CITY           SKY/WX    TMP DP  RH WIND       PRES   REMARKS
White Plains   LGT RAIN  53  51  93 NE14G22   29.94F FOG
Larchmont Harb   N/A     50 N/A N/A NE26        N/A
Croton O-T Hud   N/A     54 N/A N/A NE3G12      N/A
Newburgh       LGT RAIN  52  52 100 NE15G23   30.00S FOG
Montgomery     LGT RAIN  53  51  93 NE12      29.97F FOG
Poughkeepsie   LGT RAIN  53  50  89 NE6       29.99F
Albany         LGT RAIN  54  47  77 NE8       30.06F
$$

NJZ001-105-106-008-010-013-015-019>022-104-260000-
NEW JERSEY

CITY           SKY/WX    TMP DP  RH WIND       PRES   REMARKS
Newark/Liberty RAIN      54  52  93 NE15G25   29.90F FOG
Teterboro      HVY RAIN  55  52  89 E17G28    29.90F FOG
Caldwell       RAIN      55  53  93 E10G21    29.92S FOG
Somerville     LGT RAIN  56  53  90 VRB6G22   29.86S FOG
Linden         RAIN      55  52  91 E14G20    29.89F
Sussex         LGT RAIN  53  52  96 NE15G23   29.93F FOG
Andover          N/A     54  52  93 NE6       29.91F
Trenton        LGT RAIN  55  54  96 E16G25    29.84F FOG
Millville      HVY RAIN  56  56 100 NE12      29.76S FOG
Atlantic City  FOG       58  56  93 E14       29.76F VSB 1
Wrightstown    LGT RAIN  54  54 100 NE16      29.80F FOG
Toms River     LGT RAIN  53  53 100 E10G29    29.83F
Belmar         CLOUDY    52  51  97 NE16G23   29.86F
$$

PAZ047>061-062-071-260000-
EASTERN PENNSYLVANIA

CITY           SKY/WX    TMP DP  RH WIND       PRES   REMARKS
Philadelphia   CLOUDY    56  54  93 NE16G25   29.81F
Allentown      LGT RAIN  56  53  90 E12       29.87S FOG
Scranton       CLOUDY    56  51  84 NE13      29.89F
$$

CTZ002-004>006-009-010-012-RIZ004-006-007-MAZ004-011-015-260000-
SOUTHERN NEW ENGLAND
 IN CT

CITY           SKY/WX    TMP DP  RH WIND       PRES   REMARKS
Bradley INTL   LGT RAIN  49  47  93 N14       30.08F
Hartford       CLOUDY    51  49  92 N10       30.06F
Danbury        LGT RAIN  50  50 100 NE12G21   29.99F FOG
Wtrbury/Oxford LGT RAIN  48  45  87 E15G24    30.02F FOG
Bridgeport     LGT RAIN  54  50  86 NE17      29.98F FOG
Meriden        LGT RAIN  52  49  89 VRB7      30.04F FOG
New Haven      CLOUDY    52  50  93 NE13      29.99F FOG
Chester        LGT RAIN  50  50 100 NE10G20   30.02F
Groton         LGT RAIN  53  51  93 E12       30.03S FOG
Wilimantic     CLOUDY    51  48  89 NE13      30.07F

 IN RI

CITY           SKY/WX    TMP DP  RH WIND       PRES   REMARKS
Providence     RAIN      50  50 100 N10       30.09F FOG
Block Island   NOT AVBL
Westerly       HVY RAIN  53  51  93 NE8       30.04F FOG
 IN MA

CITY           SKY/WX    TMP DP  RH WIND       PRES   REMARKS
Boston         LGT RAIN  47  46  97 NE20      30.16F FOG
Worcester      LGT RAIN  43  41  93 NE14G23   30.11F VSB 1/4
Westfield      LGT RAIN  49  47  93 NE9       30.09F
Provincetown   LGT RAIN  50  49  96 E18G28    30.13F FOG
Nantucket      LGT RAIN  52  50  93 E20G30    30.07F FOG
$$

ANZ330-335-338-340-345-350-353-355-260000-
COASTAL MARINE OBSERVATIONS


STATION/POSITION TIME  SKY/WX   TEMP    WIND        PRES    VSBY  WAVE
                                AIR SEA DIR/SP/G                  HT/PER
                 (UTC)          (F)     (DEG/KT/KT) (MB)    (MI)  (FT/S)
NY HARB ENTRANCE 2150            51 47   70/ 25/ 35 1011.3          9/ 7
20 S FIRE ISLAND 2250            50 47   70/ 21/ 25 1010.5         11/11
GREAT SOUTH BAY  2215            54 55   60/ 19/ 21   N/A
23 SSW MONTAUK P 2150            49 45              1015.2          7/ 6
15 E BARNEGAT LI 2230               50                N/A          11/10
HUDSON CANYON    2150            54 47  100/ 19/ 23 1010.1         13/10
KINGS POINT      2230            52 48   90/ 12/ 19 1013.1
EXECUTION ROCKS  NOT AVBL
CENTRAL LI SOUND 2230            49      70/ 16/ 19   N/A           2/ 4
EASTERN LI SOUND NOT AVBL
ROBBINS REEF     2230            54      60/ 25/ 32 1012.1
$$


>>>>>>>>>>>>>>>>>>>>>>>>>>>> KEY <<<<<<<<<<<<<<<<<<<<<<<<<<<
>                                                          <
>     SKY/WX - Sky Condition/Present Weather               <
>     TMP    - Temperature in Fahrenheit                   <
>     DP     - Dew Point in Fahrenheit                     <
>     RH     - Relative Humidity in Percent                <
>     WIND   - Direction (from) and Speed in MPH           <
>     PRES   - Mean Sea Level Pressure (inches of Hg)      <
>     WCI    - Wind Chill Index                            <
>     VSB    - VISIBILITY IN MILES                         <
>     HX     - HEAT INDEX                                  <
>     TC     - TEMPERATURE IN CELSIUS                      <
>     VRB    - VARIABLE WIND DIRECTION                     <
>                                                          <
>>>>>>>>>>>>>>>>>>>>>>>>>>>> KEY <<<<<<<<<<<<<<<<<<<<<<<<<<<



USA.gov is the U.S. government's official web portal to all federal, state and local government web resources and services.